New Windsor · NYS Corporation


New Windsor · NYS Corporation

DOS ID Business Entity Name Address Filing Date
6023753 Adk Interiors Inc 2604 Vails Gate Hghts, New Windsor, NEW YORK 12553 2021-05-27
6021408 Legacy Home Cleaning Service LLC 1107 Snake Hill Rd, New Windsor, NEW YORK 12553 2021-05-25
6020842 Invest Ape LLC 1795 State Route 32, Ste. 200, New Windsor, NEW YORK 12553 2021-05-25
6019723 Mangieboon, Inc. 1001 Forest Glen, New Windsor, NEW YORK 12553-4900 2021-05-24
6018938 Elias Enterprises Corp 14 High Street, New Windsor, NEW YORK 12553 2021-05-21
6017554 Natasha Heckstall LLC 3214 Hamilton Way, New Windsor, NEW YORK 12553 2021-05-20
6017677 St Louis's Destinations LLC 671 Mount Airy Rd., New Windsor, NEW YORK 12553 2021-05-20
6016801 Chona Unscripted LLC 2206 Clark St, New Windsor, NEW YORK 12553 2021-05-19
6016804 Fwb Swim LLC 276 Temple Hill Rd Unit 2605, New Windsor, NEW YORK 12553 2021-05-19
6015356 Griffin Capital Group, LLC 29 Park Hill Dr, New Windsor, NEW YORK 12553 2021-05-18
6015433 Jb Photography LLC 4 Vascello Rd., New Windsor, NEW YORK 12553 2021-05-18
6014552 Buttonwood Partners Asset Management II LLC C/O The LLC, 484 Temple Hill Rd., Ste. 102, New Windsor, NEW YORK 12553 2021-05-17
6014341 Memorable Moments Rentals LLC 520 Macnary Road, New Windsor, NEW YORK 12553 2021-05-17
6011123 Artsy Chicos LLC 276 Temple Hill Road, Unit 260, New Windsor, NEW YORK 12553 2021-05-12
6010409 Legendary Lionscaping, LLC 1523 State Route 94, New Windsor, NEW YORK 12553 2021-05-11
6006156 Security Solutions Hudson Valley Inc. 42 Lakeside Dr., New Windsor, NEW YORK 12553 2021-05-05
6005168 Dulux LLC 35 Cedar Ln, Unit 2, New Windsor, NEW YORK 12553 2021-05-04
6001613 Hive Graphics Inc 6 Oxford Rd, New Windsor, NEW YORK 12553 2021-04-29
6001280 Morena's Glitz & Glamor Boutique, LLC 1006 Hawthorn Way, New Windsor, NEW YORK 12553 2021-04-29
5998805 Like Attracts Like Evolution LLC 5210 Terrace Dr, New Windsor, NEW YORK 12553 2021-04-27
5997665 Shifting Gears Holdings LLC 521 Shore Drive, New Windsor, NEW YORK 12553 2021-04-26
5997501 Albitas Logistics, LLC 431 Blooming Grove Tpke Apt 7, New Windsor, NEW YORK 12553 2021-04-26
5998386 Grace and Speed, Inc 367 Windsor Hwy #437, New Windsor, NEW YORK 12553 2021-04-26
5996420 Fany Sells Ny Inc. 19 Columbus St Unit 2, New Windsor, NEW YORK 12553 2021-04-22
5992750 Sagmav LLC 25 Coach House Ct, New Windsor, NEW YORK 12553 2021-04-19
5991830 Zorri Inc. 126 Sycamore Dr, New Windsor, NEW YORK 12553 2021-04-19
5991919 Like Us: Sisters With Vision LLC 15 Melrose Ave, New Windsor, NEW YORK 12553 2021-04-19
5990717 01 Kay Holdings Inc 15 Tarkett Dr, New Windsor, NEW YORK 12553 2021-04-16
5990271 Sm Holding Company, Inc. 677 Little Britian Road, New Windsor, NEW YORK 12553 2021-04-15
5990648 Pp&dt Construction Inc 393 Old Forge Rd, New Windsor, NEW YORK 12553 2021-04-15
5986007 Gm Hr Solutions LLC 1305 Hawthorn Way, New Windsor, NEW YORK 12553 2021-04-09
5985204 Eton Enterprise LLC 404 Hawthorn Way, New Windsor, NEW YORK 12553 2021-04-09
5983022 Mike C Fitness LLC 545 Barberry Ln., New Windsor, NEW YORK 12553 2021-04-07
5980800 El Metapaneco Restaurant LLC 25 Faye Ave, New Windsor, NEW YORK 12553 2021-04-05
5980463 Mondo Contracting Services LLC 5208 Clark Street, New Windsor, NEW YORK 12553 2021-04-05
5980799 Hudson Valley Holdings 1 LLC 367 Windsor Highway #445, New Windsor, NEW YORK 12553 2021-04-05
5977228 Legend Fraser Real Estate Limited Liability Company 1608 Hawthorn Way, New Windsor, NEW YORK 12553 2021-03-31
5978062 God7like LLC 1513 Snake Hill Road, New Windsor, NEW YORK 12553 2021-03-31
5976612 Omega Hair & Spa Inc. 418 Arbor Ln, New Windsor, NEW YORK 12553 2021-03-30
5975894 Just Call Matt, Inc. 51 Union Avenue, New Windsor, NEW YORK 12553 2021-03-29
5972662 375 Hasbrouck LLC 350 Blooming Grove Turnpike, New Windsor, NEW YORK 12553 2021-03-25
5970148 The Brini Group, LLC 1501 Balsam Drive, New Windsor, NEW YORK 12553 2021-03-22
5969261 A Little Latin for Your Soul LLC 335 Blooming Grove Tpke, New Windsor, NEW YORK 12553 2021-03-22
5967001 Affordable Drug and Alcohol Testing LLC 65 Birchwood Dr., New Windsor, NEW YORK 12553 2021-03-18
5967181 Sisu Designs, Inc. 10 Stonecrest Dr, New Windsor, NEW YORK 12553 2021-03-18
5966400 A Sure Thing Movers LLC 35 Stonecrest Dr, New Windsor, NEW YORK 12553 2021-03-18
5966880 Temptin Treasures LLC 608 Union Ave, New Windsor, NEW YORK 12553 2021-03-18
5962246 Anchored Lifestyle LLC 31 Hudson Dr, New Windsor, NEW YORK 12553 2021-03-12
5960977 Mayor Loomis Inc 321 Walnut Ave, New Windsor, NEW YORK 12553 2021-03-11
5958489 J.e. Inspection Services, LLC 329 Nina St, New Windsor, NEW YORK 12553 2021-03-09
5955679 Fiddlestix, LLC 508 Bayberry Ct., New Windsor, NEW YORK 12553 2021-03-04
5954717 Scriptworks Film & Television LLC 2206 Clark Street, New Windsor, NEW YORK 12553 2021-03-03
5952667 Ufanzyboutique LLC 4021 Thomas Paine Way, New Windsor, NEW YORK 12553 2021-03-02
5953024 Jfm Contracting, LLC 503 Macnary Road, New Windsor, NEW YORK 12553 2021-03-02
5952639 Locuzon Inc. 69 Silver Spring Rd., New Windsor, NEW YORK 12553 2021-03-02
5951859 Michael B Korzen Dds P.C. 190 Quassaick Ave, New Windsor, NEW YORK 12553 2021-03-01
5950989 Milano Property Maintenance & Renovation LLC 1136 Ny-94 Apt. #1 Basement, New Windsor, NEW YORK 12553 2021-02-26
5946123 50callabz LLC Po Box 4425, 436 Blooming Grove Tpke 1100, New Windsor, NEW YORK 12553 2021-02-22
5944374 Your Sounding Board LLC 58 Creamery Drive, New Windsor, NEW YORK 12553 2021-02-18
5943362 Kismet By Vali LLC 82lakeside Drive, New Windsor, NEW YORK 12553 2021-02-17
5941437 I Know A Guy Home Services LLC 86 Vails Gate Heights Dr., New Windsor, NEW YORK 12553 2021-02-16
5940336 Catori Studio LLC 61 Jacqueline Street, New Windsor, NEW YORK 12553 2021-02-12
5938337 Txg Properties LLC 181 Windsor Hwy, New Windsor, NEW YORK 12553 2021-02-10
5938211 Broomtails LLC 100 Shore Drive, New Windsor, NEW YORK 12553 2021-02-09
5935028 Weeks Concrete and Remodeling LLC 431 Blooming Grove Turnpike, 9, New Windsor, NEW YORK 12553 2021-02-05
5933649 L&lsill LLC 342 Nina Street, New Windsor, NEW YORK 12553 2021-02-04
5933191 Cheryl's Golden LLC 367 Windsor Highway, #142, New Windsor, NEW YORK 12553 2021-02-03
5930663 Kornegay Unlimited LLC 245 Windsor Hwy, New Windsor, NEW YORK 12553 2021-02-01
5931476 Silent Pendulum Records LLC 9 Benedict Lane, New Windsor, NEW YORK 12553 2021-02-01
5930177 First Pick Media, LLC 367 Windsor Highway #212, New Windsor, NEW YORK 12553 2021-01-29
5929646 Mjshomerepair LLC 3 Oakridge Dr., New Windsor, NEW YORK 12553 2021-01-29
5928188 Asia Shakti LLC 4202 Clark Street, New Windsor, NEW YORK 12553 2021-01-27
5928393 Horizon Exteriors Company, LLC 43 Lafayette Avenue, New Windsor, NEW YORK 12553 2021-01-27
5926565 C+c Mechanical LLC 27 Alder Dr., New Windsor, NEW YORK 12553 2021-01-26
5926171 Chasing Leaves, LLC 240 Summit Dr, New Windsor, NEW YORK 12553 2021-01-25
5924974 Titus Athletic Brand LLC 306 Butternut Dr, New Windsor, NEW YORK 12553 2021-01-25
5923662 Nrgconnection L.L.C. 336 Old Forge Hill Rd, 2222, New Windsor, NEW YORK 12553 2021-01-21
5921725 Gimme Tahini, Inc. 128 Glendale Drive, New Windsor, NEW YORK 12553 2021-01-20
5918582 Ktbt Wealth Group, LLC 112 Laurel Dr., New Windsor, NEW YORK 12553 2021-01-15
5918334 Designyourself LLC 40 Creamery Dr., New Windsor, NEW YORK 12553 2021-01-14
5916588 R&d Mechanical of New Windsor Inc. 2989 Route 9w, New Windsor, NEW YORK 12553 2021-01-13
5914413 Lalai Food Corp. 5 Stone Ledge Rd, New Windsor, NEW YORK 12553 2021-01-11
5911711 High Altitude Aviation LLC 246 Daniher Ave, New Windsor, NEW YORK 12553 2021-01-07
5909095 Aaron's Automated LLC 55 Wellington Dr, New Windsor, NEW YORK 12553 2021-01-05
5907637 Dogwood Lane Enterprises LLC 367 Windsor Highway, #182, New Windsor, NEW YORK 12553 2021-01-04
5903543 Windsor Garden Property LLC 247 Garden St, New Windsor, NEW YORK 12553 2020-12-24
5889272 Jet X Apparel, LLC 367 Windsor Hwy, Suite 418, New Windsor, NEW YORK 12553 2020-12-02
5887835 Rise High Clique LLC 835 Blooming Grove Tpke. Apt 2, New Windsor, NEW YORK 12553 2020-12-01
5885510 Ideal Home Usa, LLC 367 Windsor Highway Unit 456, New Windsor, NEW YORK 12553 2020-11-25
5884374 Kehoekrafts Inc. 74 Jacqueline St, New Windsor, NEW YORK 12553 2020-11-24
5885151 Kevs Living Well Environmental LLC 618 Crab Apple Ln, New Windsor, NEW YORK 12553 2020-11-24
5884104 Michelle Gannon Inc 7 Lisa Lane, New Windsor, NEW YORK 12553 2020-11-23
5881436 41 17k LLC 530 Bloom Grove Turnpike, P.o. Box 4323, New Windsor, NEW YORK 12553 2020-11-19
5879396 Relief Green LLC 2922 Mckinley Ct, New Windsor, NEW YORK 12553 2020-11-16
5876037 Love, Aleyka LLC 692 Mount Airy Rd., New Windsor, NEW YORK 12553 2020-11-12
5876477 Essential Home Improvement Limited Liability Company 336 Old Forge Hill Rd, Apt 250, New Windsor, NEW YORK 12553 2020-11-12
5876706 Quality 100 LLC 4 Riverview Ave Apt 1, New Windsor, NEW YORK 12553 2020-11-12
5874756 Ep Entertainment Inc 131 Erie Ave, New Windsor, NEW YORK 12553 2020-11-09
5872848 God Loves Pink LLC Po Box 4531, New Windsor, NEW YORK 12553 2020-11-05
5872103 Rpm Global Ventures Inc 14 Browning Rd, New Windsor, NEW YORK 12553 2020-11-04

City

City Counts
1. New York 637769 19.01%
2. Brooklyn 465944 13.89%
3. Albany 158663 4.73%
4. Bronx 101983 3.04%
5. Staten Island 57444 1.71%
6. Flushing 53665 1.60%
7. Buffalo 49131 1.46%
8. Rochester 40403 1.20%
9. Jamaica 26373 0.79%
10. Great Neck 25103 0.75%
11. Astoria 23749 0.71%
12. Yonkers 22896 0.68%
13. White Plains 22113 0.66%
14. Syracuse 17952 0.54%
15. Long Island City 17812 0.53%
16. Garden City 14774 0.44%
17. Forest Hills 13821 0.41%
18. Monsey 13606 0.41%
19. Valley Stream 12360 0.37%
20. New Rochelle 12299 0.37%